User: anonymous   Login
Location: *
(17.3280°S, 114.7300°W)
Time: 00:46:24
(UTC+00:00)
Language:

GPS 2-04 Rocket1 - Orbit

View from above orbital plane
View from above orbital plane
View from above satellite
View from above satellite

Ground track
Ground track

The orbit data is extracted from the following two-line orbital elements,

1 20303U 89085B   20293.38567576  .00001974  00000-0  64364-4 0  9999
2 20303  35.6364 311.6976 0094278 199.1100 160.6079 15.27704229687022
Epoch (UTC): 19 October 2020 09:15:22
Eccentricity: 0.0094278
inclination: 35.6364°
perigee height: 418 km
apogee height: 547 km
right ascension of ascending node: 311.6976°
argument of perigee: 199.1100°
revolutions per day: 15.27704229
mean anomaly at epoch: 160.6079°
orbit number at epoch: 68702

The dashed part of the orbit path shows where the satellite is in the earth's shadow,  

DLR